7 * 24
多渠道服务支持
INTELSAT 3-F2 是一颗由美国在1968年发射的通信卫星,属于INTELSAT III系列,旨在提供跨大西洋的电视和电话传输服务。该卫星由Hughes Aircraft Company制造,是早期地球同步轨道通信卫星的代表之一。尽管发射后不久即失效,但它为后续通信卫星的发展提供了宝贵经验,并推动了国际通信卫星组织(INTELSAT)的技术进步。
| 数据来源 | 国际轨道数据 |
| 星历时间: | 2025-10-28T23:05:02+0800 15小时前 查看轨道信息 |
| 半长轴: | 45249.775km |
| 偏心率: | 0.008902 |
| 轨道倾角: | 4.610° |
| 近地点辐角 | 84.584° |
| 升交点赤经 | 296.965° |
| 平近点角 | 312.282° |
| 近地点: | 38468.826km |
| 远地点: | 39274.454km |
| 周期: | 1596.557分钟 |
| 每日圈数: | 0.901941 |